Time,TemperatureF,DewpointF,PressureIn,WindDirection,WindDirectionDegrees,WindSpeedMPH,WindSpeedGustMPH,Humidity,HourlyPrecipIn,Conditions,Clouds,dailyrainin,SoftwareType,DateUTC
2017-12-17 00:00:00,39.0,14.9,30.03,East,82,2.0,2.0,37,0.00,,,0.00,Wunderground v.1.15,2017-12-17 08:00:00,
2017-12-17 00:09:00,39.2,15.7,30.04,East,92,1.0,1.0,38,0.00,,,0.00,Wunderground v.1.15,2017-12-17 08:09:00,
2017-12-17 00:14:00,39.1,14.4,30.03,East,92,1.0,4.0,36,0.00,,,0.00,Wunderground v.1.15,2017-12-17 08:14:00,
2017-12-17 00:19:00,38.9,14.8,30.04,East,79,1.0,4.0,37,0.00,,,0.00,Wunderground v.1.15,2017-12-17 08:19:00,
2017-12-17 00:29:00,38.7,15.2,30.04,NE,55,1.0,4.0,38,0.00,,,0.00,Wunderground v.1.15,2017-12-17 08:29:00,
2017-12-17 00:34:00,38.4,15.6,30.04,NE,44,1.0,4.0,39,0.00,,,0.00,Wunderground v.1.15,2017-12-17 08:34:00,
2017-12-17 00:40:00,38.3,14.9,30.05,NE,44,1.0,4.0,38,0.00,,,0.00,Wunderground v.1.15,2017-12-17 08:40:00,
2017-12-17 00:45:00,38.1,16.4,30.05,NE,44,1.0,4.0,41,0.00,,,0.00,Wunderground v.1.15,2017-12-17 08:45:00,
2017-12-17 00:50:00,38.0,15.2,30.05,NE,43,1.0,4.0,39,0.00,,,0.00,Wunderground v.1.15,2017-12-17 08:50:00,
2017-12-17 00:55:00,38.2,15.4,30.05,NE,43,2.0,4.0,39,0.00,,,0.00,Wunderground v.1.15,2017-12-17 08:55:00,
2017-12-17 01:05:00,38.0,16.4,30.05,NE,43,1.0,4.0,41,0.00,,,0.00,Wunderground v.1.15,2017-12-17 09:05:00,
2017-12-17 01:10:00,37.9,15.7,30.05,NE,43,1.0,1.0,40,0.00,,,0.00,Wunderground v.1.15,2017-12-17 09:10:00,
2017-12-17 01:15:00,37.9,16.3,30.06,NE,43,1.0,2.0,41,0.00,,,0.00,Wunderground v.1.15,2017-12-17 09:15:00,
2017-12-17 01:20:00,37.8,17.3,30.05,NE,43,1.0,1.0,43,0.00,,,0.00,Wunderground v.1.15,2017-12-17 09:20:00,
2017-12-17 01:25:00,37.6,16.5,30.05,NE,43,1.0,2.0,42,0.00,,,0.00,Wunderground v.1.15,2017-12-17 09:25:00,
2017-12-17 01:35:00,37.4,14.1,30.05,NW,313,1.0,5.0,38,0.00,,,0.00,Wunderground v.1.15,2017-12-17 09:35:00,
2017-12-17 01:40:00,37.9,15.1,30.06,NW,312,1.0,1.0,39,0.00,,,0.00,Wunderground v.1.15,2017-12-17 09:40:00,
2017-12-17 01:49:00,38.9,12.2,30.06,NW,307,1.0,4.0,33,0.00,,,0.00,Wunderground v.1.15,2017-12-17 09:49:00,
2017-12-17 01:54:00,40.2,13.3,30.06,NW,307,2.0,4.0,33,0.00,,,0.00,Wunderground v.1.15,2017-12-17 09:54:00,
2017-12-17 01:59:00,40.8,11.7,30.07,NW,307,1.0,4.0,30,0.00,,,0.00,Wunderground v.1.15,2017-12-17 09:59:00,
2017-12-17 02:14:00,41.9,11.1,30.07,NW,306,0.0,4.0,28,0.00,,,0.00,Wunderground v.1.15,2017-12-17 10:14:00,
2017-12-17 02:20:00,41.8,11.8,30.07,NW,306,0.0,4.0,29,0.00,,,0.00,Wunderground v.1.15,2017-12-17 10:20:00,
2017-12-17 02:25:00,41.9,11.9,30.07,NW,306,1.0,4.0,29,0.00,,,0.00,Wunderground v.1.15,2017-12-17 10:25:00,
2017-12-17 02:30:00,42.0,12.8,30.06,NW,306,0.0,4.0,30,0.00,,,0.00,Wunderground v.1.15,2017-12-17 10:30:00,
2017-12-17 02:35:00,41.8,12.6,30.06,NW,306,0.0,4.0,30,0.00,,,0.00,Wunderground v.1.15,2017-12-17 10:35:00,
2017-12-17 02:45:00,41.8,14.1,30.06,NW,306,1.0,4.0,32,0.00,,,0.00,Wunderground v.1.15,2017-12-17 10:45:00,
2017-12-17 02:50:00,41.5,13.1,30.06,NW,306,1.0,4.0,31,0.00,,,0.00,Wunderground v.1.15,2017-12-17 10:50:00,
2017-12-17 02:55:00,40.9,13.3,30.06,NW,306,1.0,4.0,32,0.00,,,0.00,Wunderground v.1.15,2017-12-17 10:55:00,
2017-12-17 03:00:00,40.6,13.0,30.05,NW,306,1.0,4.0,32,0.00,,,0.00,Wunderground v.1.15,2017-12-17 11:00:00,
2017-12-17 03:05:00,40.5,12.9,30.06,NW,306,1.0,4.0,32,0.00,,,0.00,Wunderground v.1.15,2017-12-17 11:05:00,
2017-12-17 03:09:00,40.4,13.5,30.06,NW,306,1.0,4.0,33,0.00,,,0.00,Wunderground v.1.15,2017-12-17 11:09:00,
2017-12-17 03:15:00,40.2,13.3,30.06,NW,306,2.0,4.0,33,0.00,,,0.00,Wunderground v.1.15,2017-12-17 11:15:00,
2017-12-17 03:24:00,40.1,12.6,30.05,NW,321,2.0,4.0,32,0.00,,,0.00,Wunderground v.1.15,2017-12-17 11:24:00,
2017-12-17 03:29:00,40.6,13.0,30.06,NW,321,2.0,4.0,32,0.00,,,0.00,Wunderground v.1.15,2017-12-17 11:29:00,
2017-12-17 03:35:00,40.4,13.5,30.05,NW,321,2.0,4.0,33,0.00,,,0.00,Wunderground v.1.15,2017-12-17 11:35:00,
2017-12-17 03:40:00,40.3,12.7,30.06,NW,321,1.0,1.0,32,0.00,,,0.00,Wunderground v.1.15,2017-12-17 11:40:00,
2017-12-17 03:50:00,39.6,13.5,30.06,NW,321,0.0,4.0,34,0.00,,,0.00,Wunderground v.1.15,2017-12-17 11:50:00,
2017-12-17 03:55:00,39.2,15.7,30.05,NW,321,1.0,4.0,38,0.00,,,0.00,Wunderground v.1.15,2017-12-17 11:55:00,
2017-12-17 04:00:00,38.9,14.2,30.06,NW,321,1.0,4.0,36,0.00,,,0.00,Wunderground v.1.15,2017-12-17 12:00:00,
2017-12-17 04:05:00,38.9,12.9,30.06,NW,321,1.0,4.0,34,0.00,,,0.00,Wunderground v.1.15,2017-12-17 12:05:00,
2017-12-17 04:10:00,39.0,13.6,30.06,NW,321,1.0,4.0,35,0.00,,,0.00,Wunderground v.1.15,2017-12-17 12:10:00,
2017-12-17 04:15:00,38.9,14.2,30.06,NW,321,1.0,4.0,36,0.00,,,0.00,Wunderground v.1.15,2017-12-17 12:15:00,
2017-12-17 04:25:00,38.6,13.9,30.06,NW,321,0.0,4.0,36,0.00,,,0.00,Wunderground v.1.15,2017-12-17 12:25:00,
2017-12-17 04:30:00,38.4,13.7,30.06,NW,321,1.0,4.0,36,0.00,,,0.00,Wunderground v.1.15,2017-12-17 12:30:00,
2017-12-17 04:35:00,38.3,12.3,30.06,ENE,67,1.0,4.0,34,0.00,,,0.00,Wunderground v.1.15,2017-12-17 12:35:00,
2017-12-17 04:40:00,38.4,13.1,30.07,ENE,67,0.0,4.0,35,0.00,,,0.00,Wunderground v.1.15,2017-12-17 12:40:00,
2017-12-17 04:49:00,37.8,14.4,30.07,ENE,67,1.0,4.0,38,0.00,,,0.00,Wunderground v.1.15,2017-12-17 12:49:00,
2017-12-17 04:55:00,37.6,13.6,30.07,ENE,67,1.0,4.0,37,0.00,,,0.00,Wunderground v.1.15,2017-12-17 12:55:00,
2017-12-17 05:04:00,38.2,12.9,30.07,ENE,64,1.0,4.0,35,0.00,,,0.00,Wunderground v.1.15,2017-12-17 13:04:00,
2017-12-17 05:09:00,38.4,12.4,30.07,ENE,64,1.0,4.0,34,0.00,,,0.00,Wunderground v.1.15,2017-12-17 13:09:00,
2017-12-17 05:14:00,38.6,12.6,30.07,ENE,64,1.0,4.0,34,0.00,,,0.00,Wunderground v.1.15,2017-12-17 13:14:00,
2017-12-17 05:19:00,38.8,12.8,30.07,ENE,64,1.0,4.0,34,0.00,,,0.00,Wunderground v.1.15,2017-12-17 13:19:00,
2017-12-17 05:29:00,39.1,12.4,30.07,ENE,64,1.0,4.0,33,0.00,,,0.00,Wunderground v.1.15,2017-12-17 13:29:00,
2017-12-17 05:34:00,39.3,12.6,30.07,ENE,64,1.0,4.0,33,0.00,,,0.00,Wunderground v.1.15,2017-12-17 13:34:00,
2017-12-17 05:40:00,39.5,12.0,30.07,ENE,64,1.0,1.0,32,0.00,,,0.00,Wunderground v.1.15,2017-12-17 13:40:00,
2017-12-17 05:45:00,39.8,11.6,30.07,ENE,64,1.0,4.0,31,0.00,,,0.00,Wunderground v.1.15,2017-12-17 13:45:00,
2017-12-17 05:50:00,40.0,11.8,30.07,ENE,64,1.0,1.0,31,0.00,,,0.00,Wunderground v.1.15,2017-12-17 13:50:00,
2017-12-17 05:55:00,40.2,11.9,30.07,ENE,64,1.0,4.0,31,0.00,,,0.00,Wunderground v.1.15,2017-12-17 13:55:00,
2017-12-17 06:05:00,40.4,12.1,30.08,ENE,64,0.0,4.0,31,0.00,,,0.00,Wunderground v.1.15,2017-12-17 14:05:00,
2017-12-17 06:10:00,40.5,12.2,30.08,ENE,64,1.0,1.0,31,0.00,,,0.00,Wunderground v.1.15,2017-12-17 14:10:00,
2017-12-17 06:15:00,40.6,12.3,30.08,ENE,64,1.0,4.0,31,0.00,,,0.00,Wunderground v.1.15,2017-12-17 14:15:00,